Location: Puketoi
(40.5833°S, 176.0167°E)
Time: 04:23:56
(UTC+00:00)

PAYLOAD A - Pass Details

Date: 22 September 2023
Orbit: 691 x 830 km, 98.5° (Epoch: 09 December)

Event Time Altitude Azimuth Distance (km) Brightness Sun altitude
Exits shadow 14:21:08 20° 166° (SSE) 1,836 6.3 -39.7°
Drops below altitude 10° 14:22:59 10° 177° (S) 2,460 7.0 -39.5°
Sets 14:25:31 0° 185° (S) 3,408 7.8 -39.1°
